Wind_Speed
12 10 8 6 5 4 5 7 8 9 12 14 16 18 19 21 22 22 22 23 23 23 23 23 24 25 25 25 25 24 23 23 23 23 22 22 21 21
12 10 8 7 5 4 5 6 8 9 11 13 15 17 19 20 22 22 23 23 23 23 24 24 24 25 25 26 26 25 26 25 24 24 23 23 23 23
13 11 9 7 6 5 6 6 8 10 11 12 14 16 18 20 21 22 23 23 24 24 25 25 25 26 26 26 26 26 26 26 26 26 25 25 25 25
13 12 10 9 7 7 7 7 8 9 11 12 13 14 16 19 21 22 23 23 25 25 25 26 25 26 26 27 28 28 28 28 28 27 27 27 27 26
13 12 11 10 9 8 8 8 9 9 11 12 13 14 16 18 19 21 23 24 24 25 26 26 26 27 27 27 27 28 28 29 29 29 29 29 29 29
14 14 13 12 11 10 9 10 10 11 12 13 14 15 16 18 19 21 22 23 24 25 25 26 26 26 27 27 27 27 28 29 29 30 30 30 30 30
16 15 14 14 13 13 12 12 12 12 13 13 14 15 17 18 19 20 22 24 24 25 26 26 27 27 28 28 28 28 28 29 29 29 30 30 30 30
18 17 16 16 15 15 14 14 15 15 15 15 16 17 18 19 20 20 22 24 24 25 26 27 28 28 29 29 28 28 28 29 29 29 30 30 30 30
21 20 20 19 18 17 17 17 17 17 17 18 18 19 20 20 22 22 22 23 24 25 26 27 28 28 28 28 29 29 29 30 31 31 31 31 31 32
24 24 23 22 22 21 20 20 20 20 20 20 20 21 22 22 22 23 23 24 26 26 27 27 27 28 28 29 29 29 29 30 30 32 32 32 32 33
27 26 26 26 25 25 24 23 23 23 23 23 23 23 23 24 24 24 25 25 27 27 28 28 28 29 29 29 29 30 30 31 31 32 32 32 32 33
30 30 29 29 29 29 28 27 27 26 26 26 26 26 26 26 26 26 26 27 27 27 28 28 29 29 29 30 30 31 31 31 31 32 32 32 33 33
34 33 32 32 33 33 32 31 30 30 29 29 28 28 28 28 28 28 28 28 28 28 29 30 29 29 29 30 31 31 32 32 32 32 32 31 32 33
37 37 36 35 35 35 34 34 33 33 32 31 31 30 30 30 30 30 30 30 30 29 30 30 30 30 30 30 30 31 31 31 32 32 32 32 32 33
40 40 39 38 37 37 36 36 35 35 34 33 33 32 32 31 31 31 31 31 31 31 30 30 30 31 31 31 31 31 31 32 32 32 32 33 33 34
43 42 41 41 40 39 38 38 37 37 36 35 35 34 34 33 33 33 32 32 32 31 31 30 31 31 31 31 31 31 31 30 31 31 32 32 33 33
45 44 43 42 42 42 40 39 39 39 38 37 37 36 35 35 34 34 34 34 33 32 32 32 32 33 32 32 31 31 31 31 31 31 31 31 31 31
46 45 44 43 43 43 43 41 41 40 39 39 38 38 37 36 35 35 35 34 34 34 34 34 34 33 33 33 33 32 32 31 31 32 31 31 31 31
47 46 45 44 44 44 44 43 43 42 41 40 39 39 39 38 37 37 36 35 35 35 34 34 34 34 33 33 32 32 32 32 32 32 32 32 31 32
48 47 47 46 46 45 45 44 43 43 42 42 41 41 40 39 39 38 38 37 36 35 35 35 35 34 34 33 32 32 33 33 32 32 32 32 32 33
48 47 46 46 46 45 45 44 44 43 44 44 42 41 41 41 40 39 38 38 38 37 35 36 36 35 34 34 33 33 33 33 32 33 33 33 33 33
48 47 46 46 46 46 46 46 45 44 44 44 43 42 42 42 42 41 40 39 39 37 36 36 36 35 35 34 33 33 33 33 33 33 32 32 33 33
47 47 46 46 46 47 47 47 46 45 44 44 44 43 42 42 42 41 41 40 39 38 37 36 37 37 36 35 34 33 33 33 33 32 32 32 32 32
Wind_Direction
351 348 340 328 312 285 264 248 242 238 233 233 232 231 232 230 227 228 229 229 229 229 230 231 231 230 230 230 231 233 233 234 235 236 237 239 241 244
351 350 346 336 326 300 278 260 248 244 241 238 238 235 233 231 230 230 230 231 231 232 232 234 234 234 234 234 234 237 238 239 239 240 241 242 244 247
351 349 346 340 326 309 289 273 257 248 246 240 241 241 238 234 232 232 233 234 233 233 234 236 237 237 237 237 238 240 241 241 243 244 245 247 248 251
349 347 343 337 327 311 296 283 268 255 250 245 244 243 239 236 234 234 236 236 235 236 237 238 239 239 241 242 242 243 243 243 244 245 247 249 251 253
342 340 337 332 324 315 300 288 277 266 257 251 249 245 240 239 238 238 238 237 236 239 240 240 241 241 242 245 246 246 245 244 244 246 248 250 252 254
331 330 326 322 315 310 301 291 282 274 264 258 253 248 244 243 242 239 238 238 238 241 242 241 241 241 243 244 246 247 248 247 246 247 249 251 253 254
321 319 317 313 307 301 295 290 284 276 267 261 255 252 248 247 246 242 240 240 242 242 242 242 242 242 244 246 247 248 249 248 249 250 249 250 253 254
313 310 307 304 301 296 292 287 281 275 269 263 259 255 253 251 249 246 244 243 243 242 243 244 245 244 246 247 248 249 250 250 250 251 251 252 253 254
306 303 300 298 296 292 288 284 280 275 269 265 261 259 257 254 251 248 247 245 243 242 243 245 245 245 246 248 249 250 252 252 252 253 253 254 255 256
301 298 295 292 290 287 284 281 278 274 270 266 263 261 260 257 254 252 250 248 246 245 243 244 245 246 246 248 249 250 251 254 255 255 254 254 256 258
296 293 289 286 285 283 280 278 276 273 271 267 264 262 260 258 256 254 253 252 250 249 247 247 247 248 249 249 250 252 253 254 255 256 257 257 258 259
292 289 286 283 281 279 277 275 273 271 268 266 264 262 260 258 255 254 254 253 253 252 253 252 250 249 251 251 251 253 253 254 256 256 257 258 259 260
290 287 284 282 281 279 276 273 271 270 267 265 263 262 261 259 256 255 255 254 253 253 253 252 252 251 253 253 253 253 253 254 255 256 257 259 260 261
287 286 283 280 279 277 276 274 271 268 266 265 263 261 261 259 258 256 255 254 253 254 254 253 253 253 254 255 255 254 254 254 256 257 258 259 262 263
286 284 282 279 277 276 273 271 270 268 266 264 263 261 259 258 257 256 256 254 254 254 254 254 253 254 254 255 256 256 256 257 258 258 259 261 262 262
284 282 280 278 275 274 272 269 267 266 266 264 262 260 259 257 256 256 256 255 255 254 254 253 253 253 254 255 256 257 257 258 260 260 261 262 263 264
283 281 279 277 274 272 269 267 265 264 264 263 262 259 257 256 255 255 255 254 254 255 255 255 255 255 255 256 257 258 259 260 260 261 262 264 265 266
282 280 278 275 272 270 267 264 263 261 261 261 260 258 256 254 253 253 253 254 253 253 254 255 255 255 255 257 258 259 261 261 262 261 262 264 266 267
281 279 276 274 271 268 265 263 261 259 258 258 258 257 256 254 253 253 253 253 253 253 254 255 255 255 255 257 258 259 260 261 262 262 263 265 266 268
280 278 275 272 269 266 263 261 260 257 256 256 256 256 255 254 253 252 252 252 252 252 253 254 254 254 254 255 257 259 260 261 261 262 264 265 267 268
279 276 274 271 268 265 263 260 259 257 255 254 254 254 253 252 251 250 250 251 250 251 253 252 252 252 253 254 256 258 260 260 260 262 263 264 266 268
278 275 272 270 267 265 262 260 258 257 255 253 252 252 252 251 251 250 249 250 250 251 251 251 251 252 254 255 257 259 260 261 261 262 264 265 266 268
277 273 271 269 267 264 262 260 258 256 255 253 251 252 252 251 250 250 249 249 250 251 251 252 253 254 255 256 257 259 260 261 262 263 264 266 267 268
Height
5801 5799 5798 5797 5797 5797 5798 5800 5802 5803 5805 5807 5809 5812 5814 5818 5821 5825 5828 5831 5835 5838 5842 5845 5848 5851 5855 5857 5861 5863 5866 5868 5871 5873 5876 5878 5880 5882
5801 5799 5798 5797 5797 5797 5797 5798 5799 5801 5802 5804 5806 5809 5811 5814 5817 5820 5824 5827 5830 5834 5837 5840 5843 5847 5850 5853 5856 5858 5861 5864 5866 5868 5871 5873 5875 5877
5801 5799 5798 5797 5796 5796 5796 5797 5797 5799 5800 5802 5804 5805 5807 5810 5813 5816 5819 5822 5826 5829 5832 5835 5838 5841 5844 5847 5850 5853 5856 5858 5861 5863 5865 5867 5869 5871
5801 5799 5797 5796 5796 5795 5795 5795 5796 5797 5798 5799 5801 5802 5804 5806 5809 5812 5815 5818 5821 5823 5827 5830 5833 5836 5839 5841 5844 5847 5849 5852 5854 5857 5859 5861 5863 5865
5800 5799 5797 5796 5795 5794 5794 5794 5794 5794 5795 5796 5798 5799 5800 5802 5804 5807 5810 5812 5815 5818 5821 5824 5827 5830 5833 5835 5837 5840 5842 5845 5847 5849 5852 5854 5856 5858
5799 5797 5796 5794 5793 5792 5792 5792 5792 5792 5792 5793 5794 5795 5797 5798 5800 5802 5805 5807 5810 5812 5815 5818 5821 5823 5826 5828 5831 5833 5835 5837 5840 5842 5844 5846 5848 5850
5797 5795 5794 5792 5791 5790 5789 5789 5788 5788 5789 5789 5790 5791 5793 5794 5795 5797 5799 5801 5804 5806 5809 5812 5814 5817 5819 5821 5824 5826 5828 5830 5832 5834 5836 5838 5840 5842
5793 5792 5790 5789 5788 5786 5785 5785 5784 5784 5785 5785 5786 5787 5788 5789 5790 5792 5793 5796 5798 5800 5802 5805 5807 5810 5812 5814 5816 5818 5821 5823 5825 5827 5829 5830 5832 5833
5789 5787 5786 5784 5783 5782 5781 5780 5780 5780 5780 5780 5781 5781 5782 5783 5784 5786 5787 5789 5791 5793 5796 5798 5800 5802 5805 5807 5809 5811 5813 5815 5817 5819 5820 5822 5824 5825
5783 5781 5780 5778 5777 5776 5775 5774 5774 5774 5774 5774 5775 5775 5776 5776 5778 5779 5780 5782 5784 5786 5788 5791 5792 5795 5797 5799 5801 5803 5805 5806 5808 5810 5812 5813 5815 5816
5775 5773 5772 5771 5770 5769 5768 5767 5767 5767 5767 5767 5768 5768 5769 5769 5770 5772 5774 5775 5777 5779 5780 5783 5784 5786 5788 5790 5792 5794 5796 5798 5800 5801 5803 5804 5806 5807
5766 5764 5763 5762 5761 5760 5759 5759 5759 5759 5759 5759 5759 5760 5761 5762 5763 5764 5766 5767 5769 5771 5772 5774 5776 5778 5780 5782 5784 5785 5787 5788 5790 5792 5793 5795 5796 5797
5756 5754 5753 5752 5750 5749 5749 5749 5749 5749 5749 5750 5750 5751 5752 5753 5754 5756 5757 5759 5760 5762 5764 5765 5767 5769 5771 5773 5774 5776 5778 5779 5781 5782 5784 5785 5786 5788
5744 5742 5741 5740 5739 5738 5738 5738 5738 5738 5739 5740 5741 5742 5743 5744 5745 5746 5748 5749 5751 5753 5755 5756 5758 5760 5762 5764 5765 5767 5768 5770 5771 5773 5774 5775 5776 5777
5730 5729 5727 5726 5725 5725 5725 5726 5726 5727 5728 5729 5730 5732 5733 5734 5735 5736 5738 5739 5741 5743 5745 5747 5749 5751 5752 5754 5756 5757 5759 5760 5761 5762 5764 5765 5766 5767
5715 5714 5713 5712 5711 5711 5712 5713 5714 5715 5716 5717 5719 5720 5721 5723 5724 5726 5728 5729 5731 5733 5735 5737 5739 5741 5742 5744 5746 5747 5749 5750 5751 5752 5753 5754 5755 5756
5699 5698 5698 5697 5697 5697 5697 5699 5700 5701 5703 5704 5706 5707 5709 5711 5713 5715 5717 5719 5721 5723 5725 5727 5728 5730 5732 5734 5736 5737 5739 5740 5741 5742 5743 5744 5745 5746
5682 5682 5681 5681 5681 5681 5682 5683 5685 5687 5689 5690 5692 5694 5696 5698 5700 5703 5705 5707 5710 5712 5714 5716 5718 5720 5722 5724 5726 5727 5729 5730 5731 5732 5733 5734 5735 5735
5665 5664 5664 5664 5664 5665 5666 5667 5669 5672 5674 5676 5678 5680 5683 5685 5687 5690 5692 5695 5698 5700 5703 5705 5706 5709 5711 5713 5715 5716 5718 5719 5720 5721 5722 5724 5724 5725
5647 5647 5647 5647 5647 5647 5649 5650 5653 5655 5658 5661 5663 5666 5669 5671 5674 5677 5680 5682 5685 5688 5690 5693 5695 5697 5700 5702 5704 5705 5707 5708 5709 5710 5712 5713 5713 5714
5630 5629 5628 5629 5629 5630 5632 5634 5636 5639 5642 5645 5648 5651 5654 5657 5660 5664 5667 5669 5672 5675 5678 5681 5683 5686 5688 5690 5693 5694 5696 5697 5698 5699 5700 5702 5702 5703
5612 5611 5611 5611 5612 5613 5615 5617 5620 5623 5626 5629 5633 5636 5639 5643 5646 5650 5653 5657 5660 5663 5666 5669 5671 5674 5676 5679 5681 5683 5684 5686 5687 5688 5689 5690 5691 5692
5594 5593 5593 5594 5595 5596 5597 5600 5603 5606 5609 5613 5617 5620 5624 5628 5632 5635 5639 5643 5647 5650 5653 5657 5659 5662 5664 5667 5669 5671 5673 5674 5675 5677 5678 5679 5680 5680